GFSMW_850_thetae_159.txt.gz
Theta_e
346 348 347 346 346 345 343 341 342 341 344 345 345 344 344 343 344 342 344 345 345 344 340 336 337 340 339 342 340 338 338 337 328 333 332 332 333 332 337 336 335 331 331
348 349 346 346 347 347 347 347 346 344 345 344 345 344 341 340 341 343 344 343 339 343 344 341 340 342 342 344 339 334 325 332 326 333 333 332 332 338 333 334 333 336 333
348 349 348 347 347 347 347 347 347 347 345 345 344 341 342 347 345 341 339 340 340 344 345 343 343 344 345 346 338 322 320 327 323 322 329 332 333 334 334 335 336 336 334
348 348 345 346 346 346 345 346 346 348 347 347 347 343 345 347 345 344 342 342 344 345 345 343 341 342 343 344 330 320 320 321 325 331 334 332 333 334 333 333 334 334 333
346 346 342 343 345 345 345 344 345 346 347 346 346 345 347 346 346 346 345 344 345 347 345 343 346 343 343 339 324 319 319 321 327 334 335 335 335 334 333 332 330 330 329
345 345 341 341 343 344 345 345 344 344 345 346 346 346 345 345 346 346 345 343 343 344 344 343 344 341 343 337 322 319 320 325 329 330 333 334 332 331 332 330 328 326 324
345 345 343 342 342 343 344 345 344 344 345 345 345 346 346 346 346 347 348 343 342 345 345 341 343 342 342 334 321 319 323 328 330 329 328 329 329 329 327 326 324 322 322
343 344 342 342 342 342 342 344 344 344 344 344 344 345 347 347 347 348 348 347 345 346 343 336 335 343 341 328 320 321 326 328 325 322 321 323 324 324 323 323 323 324 324
342 343 343 342 342 342 341 341 343 343 343 343 343 344 346 348 348 348 349 351 347 342 344 342 339 341 337 322 321 325 327 322 320 319 317 315 314 317 319 321 323 324 324
342 342 342 341 341 343 342 342 341 342 342 343 343 343 344 347 350 350 351 351 342 334 339 343 344 341 329 322 323 328 321 319 319 318 316 314 315 319 322 322 323 324 324
340 342 342 341 341 342 343 343 343 343 342 343 343 343 344 346 349 351 352 346 336 334 335 337 342 336 325 322 328 323 319 319 318 317 317 315 315 319 322 322 324 324 324
339 341 341 341 341 341 341 343 343 343 343 343 343 343 344 345 347 351 350 346 336 337 336 335 341 335 324 326 327 320 320 319 318 317 317 316 313 316 322 324 323 321 322
338 340 339 340 341 341 342 343 343 343 343 343 343 344 344 345 347 349 351 345 339 339 336 334 341 329 326 328 323 320 321 320 319 317 317 316 313 323 323 323 320 323 322
339 339 340 341 341 342 342 343 343 343 343 344 345 345 346 346 347 349 350 348 345 343 341 341 331 326 327 328 321 321 321 321 321 318 317 315 313 323 323 320 322 323 322
339 339 340 341 341 341 341 342 343 344 345 346 347 348 349 349 351 352 349 349 345 343 340 329 325 326 329 325 321 322 322 322 322 319 318 312 320 323 320 322 323 322 321
338 338 339 339 339 340 340 341 343 345 347 348 350 351 351 352 353 353 352 347 343 340 333 326 325 328 329 322 322 323 323 323 322 318 316 310 320 321 320 322 321 321 321
335 333 333 335 338 340 341 343 343 344 345 346 348 350 352 353 355 355 348 342 340 336 329 325 326 330 324 322 323 324 324 324 322 317 311 312 321 320 322 322 322 322 322
335 333 336 338 340 343 342 340 336 340 344 346 348 350 353 354 355 350 345 341 338 331 327 325 328 324 321 322 324 324 324 324 319 313 309 314 320 320 321 322 322 322 323
338 338 340 342 343 339 336 331 332 337 337 339 343 347 351 353 353 347 342 340 334 329 325 325 324 321 321 324 325 325 324 321 317 310 308 318 320 319 320 321 322 322 322
338 342 343 341 338 338 335 333 333 331 331 330 336 343 347 352 351 344 341 338 333 327 326 325 321 321 323 326 326 326 324 318 315 309 307 316 319 318 319 321 322 321 321
343 341 340 341 342 338 331 326 327 327 330 334 340 344 347 351 347 342 340 336 330 326 327 326 323 323 325 325 326 326 319 317 313 307 309 316 318 317 318 319 321 322 321
342 341 335 327 325 323 323 322 323 323 329 336 341 345 348 349 345 341 339 334 329 327 327 327 325 326 329 327 326 322 317 315 309 305 307 314 316 316 317 318 318 322 322
333 331 329 329 328 328 331 331 332 334 330 326 330 346 348 348 344 340 339 332 330 329 328 328 328 329 327 327 325 317 314 312 306 306 306 309 313 313 315 317 316 318 321
324 322 322 324 323 322 321 326 336 341 338 338 337 345 346 347 342 338 336 332 331 330 327 327 325 324 325 326 321 316 313 308 306 306 306 306 305 305 305 310 314 314 316
322 320 319 317 316 315 314 313 313 318 329 344 344 344 343 343 338 337 334 333 332 330 329 325 323 323 325 321 317 313 309 306 305 305 305 304 303 302 302 303 307 310 311
319 318 316 314 315 316 316 316 315 314 316 339 343 342 340 338 337 336 334 333 331 330 328 324 325 324 320 318 315 311 308 306 305 305 303 302 299 300 300 301 303 306 306

GFSMW_850_thetae_162.txt.gz
Theta_e
343 346 348 349 350 351 352 352 350 347 344 350 350 350 351 352 352 352 353 349 352 352 350 349 349 346 348 347 350 347 341 340 341 337 332 333 335 337 336 335 333 333 335
343 344 347 349 350 350 352 351 343 342 340 352 351 351 351 349 350 350 352 352 347 346 348 347 350 350 350 353 351 343 337 333 336 336 334 332 333 337 334 337 337 339 338
343 344 345 347 349 350 352 351 342 342 340 346 353 353 353 351 352 351 350 349 343 339 342 343 343 344 343 350 345 339 332 333 333 337 337 336 334 335 335 333 336 336 336
343 346 347 348 349 350 352 352 345 346 345 343 352 354 351 350 352 353 351 352 351 345 342 340 343 340 345 345 344 338 322 328 333 337 337 337 337 337 336 333 332 332 331
342 344 346 348 349 350 351 353 348 345 347 346 348 353 351 351 354 354 354 346 354 342 342 344 343 343 343 342 341 334 322 331 336 336 336 336 335 334 334 331 329 328 327
344 343 345 347 348 349 350 352 352 344 345 346 345 346 351 351 353 353 353 353 352 352 344 345 345 343 345 343 341 333 324 322 328 337 336 333 331 330 329 329 327 326 324
347 345 344 345 347 348 349 350 353 346 344 345 345 345 343 344 347 351 355 354 353 347 341 337 340 347 339 343 339 329 323 332 333 333 332 330 328 328 327 326 324 324 324
346 347 346 345 345 347 349 351 352 345 344 344 344 344 344 344 350 354 354 355 355 343 336 341 327 331 342 343 335 332 330 334 334 328 327 328 325 323 323 322 323 325 325
345 346 347 348 347 347 348 350 351 345 341 344 343 343 344 344 353 353 354 356 347 343 334 333 330 332 337 341 331 328 337 335 328 329 328 324 323 322 323 324 325 326 326
342 344 346 347 348 349 348 349 351 344 341 342 342 343 343 344 344 347 350 352 348 346 342 331 332 334 336 338 330 336 337 323 324 324 324 319 323 322 323 323 325 327 327
341 343 344 346 348 348 350 350 351 351 342 342 343 345 343 344 344 345 349 348 349 349 344 335 334 335 335 338 338 336 328 324 322 320 323 320 320 322 322 326 327 327 326
340 342 343 344 347 347 348 350 352 352 343 344 345 344 347 351 346 344 345 348 350 349 347 336 335 337 338 338 338 334 330 324 325 327 322 321 322 322 323 326 328 326 325
344 343 343 344 346 347 348 349 352 353 355 355 350 347 350 350 346 345 345 346 349 348 345 338 339 337 336 338 336 327 323 328 327 323 323 323 323 322 324 327 326 325 325
347 345 345 346 348 348 349 350 351 353 355 354 348 349 350 352 351 350 346 347 349 351 347 343 341 337 338 337 330 326 325 328 326 323 322 324 322 322 323 323 323 324 324
348 348 350 350 350 350 350 349 345 348 350 348 346 349 355 358 357 356 353 349 351 348 343 342 341 339 337 335 331 328 330 325 323 324 326 322 318 317 321 321 321 322 321
346 349 351 353 352 346 342 343 343 343 344 345 348 356 359 357 359 358 353 352 349 346 344 343 339 338 335 332 325 320 325 328 328 328 322 318 320 322 321 320 320 322 322
343 348 351 352 349 349 344 342 350 346 346 348 359 359 353 354 355 354 354 353 349 346 344 340 336 335 335 330 320 322 324 328 329 326 319 319 319 321 322 319 320 323 322
340 347 350 351 346 348 344 346 351 350 353 358 355 349 351 353 354 353 353 348 344 342 339 334 332 335 335 321 321 323 324 326 327 320 318 319 321 321 319 319 320 322 322
341 347 349 349 342 349 348 346 345 350 357 345 342 344 347 351 354 351 348 343 340 338 333 333 335 335 333 320 323 325 326 328 323 320 318 319 320 318 318 318 318 322 322
347 350 349 351 352 352 347 344 356 356 348 335 333 334 338 344 349 350 344 341 339 335 334 336 336 332 332 323 325 325 327 324 321 318 318 318 317 317 317 317 317 321 321
350 350 351 353 354 351 347 347 347 332 325 324 322 325 327 333 347 348 343 341 337 338 336 336 334 332 332 324 324 324 326 321 317 317 316 316 311 314 315 316 316 319 320
351 353 353 352 350 342 336 337 326 326 325 329 335 337 344 347 349 345 342 339 336 337 336 335 334 333 326 328 328 326 324 319 314 315 314 310 306 308 312 314 314 316 318
347 347 347 347 346 341 331 323 323 323 324 328 336 345 347 348 346 344 341 339 336 336 335 335 333 332 331 325 326 326 322 316 310 308 306 306 305 304 309 309 312 313 313
341 339 336 335 334 333 332 332 335 337 336 338 344 346 348 346 345 343 341 340 338 335 335 334 333 333 330 323 320 321 318 314 311 310 310 305 305 304 304 309 310 309 310
327 324 324 322 319 316 315 314 314 317 334 345 342 344 344 344 344 341 340 337 337 336 335 333 332 330 328 322 320 317 313 309 306 308 308 306 305 305 304 306 308 308 309
328 327 326 327 327 324 317 315 314 316 322 334 343 341 340 341 339 338 337 335 334 332 330 329 327 327 326 321 317 312 309 307 305 307 306 304 304 303 303 304 305 305 304

GFSMW_850_thetae_165.txt.gz
Theta_e
344 347 348 350 351 352 354 355 355 355 354 354 353 352 350 350 350 350 352 353 352 351 352 349 349 350 349 352 349 351 344 338 336 337 336 336 335 339 339 335 338 337 339
342 344 346 348 349 351 353 355 356 356 354 354 352 351 349 349 349 349 351 354 354 354 353 353 351 351 351 351 353 350 344 338 335 338 339 337 335 337 336 338 336 338 337
342 343 345 347 348 349 352 354 356 355 354 352 353 353 352 351 351 351 352 353 355 355 354 354 354 353 350 351 350 348 343 337 336 336 340 338 335 337 338 336 335 335 334
341 342 344 347 348 348 350 353 354 353 351 342 352 351 352 351 350 351 351 351 353 354 354 354 353 353 349 346 349 345 339 335 336 337 338 338 339 338 336 333 332 331 330
341 343 344 345 346 347 348 352 355 352 349 344 345 353 352 352 351 351 351 353 354 356 355 352 344 335 336 344 343 340 340 331 338 338 338 337 336 333 332 330 329 329 328
342 343 345 346 347 347 348 350 353 350 343 348 343 349 354 353 351 352 352 353 353 354 344 348 339 341 343 341 337 337 339 337 328 327 338 334 332 330 329 329 328 327 325
344 342 344 347 348 348 348 349 352 354 348 347 347 344 345 351 350 355 354 352 350 350 354 338 340 340 342 339 337 339 338 337 336 339 337 332 330 328 327 325 325 324 324
346 345 343 345 347 348 349 349 350 353 352 350 349 348 344 353 355 355 353 353 351 350 352 347 341 342 341 331 334 339 340 340 341 338 334 332 328 326 325 324 325 326 326
345 347 346 344 345 346 348 349 349 353 352 347 348 347 345 346 356 355 356 354 354 353 352 346 345 344 336 332 336 341 340 342 340 335 332 330 327 326 325 325 325 325 327
342 344 347 347 344 345 346 347 349 351 354 346 346 346 343 343 344 352 353 357 356 356 356 345 343 344 333 335 338 341 341 340 337 331 330 329 327 327 326 324 324 326 327
339 341 344 347 349 346 345 347 348 350 355 350 357 352 348 347 345 345 347 347 349 359 354 347 349 345 337 339 338 341 340 337 333 332 331 330 328 327 326 324 325 326 326
337 338 341 344 347 349 347 346 347 350 353 354 351 354 353 352 357 352 351 352 353 359 352 348 343 348 338 339 340 342 340 334 334 332 331 330 328 328 325 324 324 324 326
342 342 342 343 345 348 349 349 349 350 353 358 356 359 358 357 357 354 354 358 358 360 356 351 348 344 339 341 341 342 337 334 332 332 331 330 329 327 325 322 324 325 325
343 346 346 344 345 348 349 350 351 353 355 357 359 361 359 360 360 359 360 359 359 357 357 351 347 344 341 342 342 339 336 333 333 332 331 330 328 325 319 325 323 324 322
341 347 349 348 348 350 350 351 351 353 355 357 360 361 363 363 363 361 360 358 357 358 352 350 347 345 343 343 341 337 335 333 333 332 331 330 326 320 322 322 323 320 321
338 344 351 351 352 353 353 353 352 354 356 358 360 361 363 363 361 360 359 358 355 353 353 348 347 345 343 340 337 331 332 332 332 332 331 329 323 322 321 323 319 319 323
335 340 349 354 355 356 356 356 357 357 358 360 362 363 364 363 360 357 359 357 355 353 352 347 346 344 342 336 332 325 320 327 331 332 331 326 323 323 322 316 318 319 323
335 337 346 354 359 358 358 358 359 360 361 363 364 365 360 353 351 354 355 357 355 352 350 347 343 342 339 336 327 319 321 325 330 332 327 324 324 322 317 315 317 320 322
337 340 343 355 358 359 360 359 361 363 364 365 364 350 348 349 348 348 351 350 353 351 345 343 342 339 337 332 320 320 324 331 331 328 324 322 321 319 315 314 316 317 319
339 343 348 354 358 358 360 362 364 364 364 362 343 342 336 332 335 341 345 347 347 341 342 339 336 337 337 330 320 323 327 329 328 324 322 320 318 316 310 311 314 316 316
349 351 351 353 357 361 363 363 362 361 359 358 355 352 347 338 341 352 350 346 342 340 336 338 337 338 334 328 323 324 325 325 323 321 321 318 316 307 306 309 312 313 314
352 352 354 360 362 362 361 359 357 355 354 355 354 353 352 351 350 352 346 341 342 340 337 338 337 334 333 328 326 328 327 325 322 318 316 309 305 305 304 309 308 310 313
355 357 358 358 358 355 354 354 353 353 353 347 346 346 335 350 351 349 344 342 339 340 339 337 335 335 334 327 328 327 325 322 316 315 309 308 306 306 308 308 310 311 310
353 353 353 352 353 351 351 348 340 335 332 331 332 342 344 349 348 346 343 342 340 340 337 335 336 335 333 329 324 323 321 319 316 310 313 309 308 308 307 309 310 310 310
347 345 342 342 343 345 346 345 340 333 338 343 341 341 345 347 346 345 342 341 339 338 336 337 335 334 332 327 324 323 319 313 309 307 310 309 308 307 307 308 308 307 306
335 335 335 331 323 316 315 315 324 325 342 344 344 346 345 345 344 344 341 338 338 336 336 334 333 331 330 328 323 320 313 309 306 310 309 309 308 307 307 307 307 306 306

GFSMW_850_thetae_168.txt.gz
Theta_e
347 349 350 351 351 353 354 354 354 354 353 353 353 347 352 351 350 349 351 352 354 353 352 348 350 351 349 350 347 352 344 338 337 335 334 334 336 339 340 336 338 336 340
345 347 350 351 352 353 354 355 355 355 353 353 353 354 351 350 349 349 350 351 350 348 352 350 350 350 350 349 350 350 339 338 336 336 337 340 336 335 334 338 336 337 336
343 345 348 349 351 352 353 354 354 353 350 350 354 352 353 349 351 351 351 353 353 352 354 351 353 351 352 348 352 348 340 339 335 337 338 340 337 336 336 336 334 333 332
342 344 346 348 349 351 352 353 354 352 347 343 355 352 349 352 349 351 351 350 351 351 351 348 343 349 349 354 349 339 341 338 336 335 338 338 336 338 339 334 332 330 329
341 343 345 347 347 349 351 351 352 350 346 338 346 354 352 351 351 351 351 351 352 353 353 350 351 348 352 349 344 345 337 337 336 335 331 331 336 333 331 330 329 324 325
340 342 344 345 347 348 349 351 351 348 342 341 337 348 354 349 354 351 352 353 352 352 352 351 353 355 351 346 345 342 336 337 336 336 335 338 333 332 329 328 326 326 325
342 342 344 345 347 347 348 349 349 350 342 339 337 337 342 354 350 354 351 353 354 353 353 353 352 350 348 346 345 335 336 337 338 339 340 329 331 330 327 326 326 325 325
345 343 345 346 346 346 347 348 350 350 349 341 339 338 342 344 355 346 355 358 351 353 352 353 352 351 343 343 343 334 337 339 340 342 335 326 327 328 327 326 325 327 325
345 345 344 347 348 348 347 348 349 351 350 349 344 342 342 342 344 345 344 349 356 354 351 352 351 351 346 346 339 334 339 340 342 341 334 331 331 327 327 326 326 324 325
343 346 345 344 347 349 349 349 349 351 351 350 349 344 343 341 340 344 347 349 347 351 356 355 353 349 349 346 341 338 342 342 342 340 332 331 329 327 328 327 324 325 327
342 343 347 346 345 346 349 350 351 350 352 353 352 350 345 342 342 343 347 348 355 355 354 355 354 354 348 347 342 339 342 342 340 332 328 332 331 329 328 326 326 323 323
339 340 344 348 348 346 346 348 350 351 351 354 355 354 352 348 345 345 343 349 355 357 357 356 354 354 349 344 343 340 343 342 337 334 333 332 330 328 328 327 325 322 324
338 340 340 341 349 349 347 346 347 348 349 351 355 357 356 356 353 355 352 352 355 359 357 355 356 354 349 345 343 342 343 341 335 333 333 332 331 329 328 324 321 322 324
336 340 343 342 345 348 349 348 347 347 348 351 354 357 356 356 357 361 362 362 361 359 359 359 357 352 350 346 344 344 343 337 333 334 334 331 331 331 323 322 322 323 320
338 342 345 348 348 348 348 350 350 349 350 352 355 358 358 358 363 363 362 361 361 361 360 360 356 351 349 347 344 344 340 335 334 335 332 332 331 325 323 322 322 321 318
336 337 345 349 349 351 350 351 353 352 352 353 355 359 360 360 361 363 362 361 361 358 357 354 354 352 348 344 344 341 336 334 334 332 332 332 328 325 323 322 316 313 319
336 335 339 345 350 350 352 352 353 355 355 356 358 359 361 362 363 362 362 360 358 357 356 355 351 349 346 344 340 338 333 328 327 331 330 331 327 321 320 317 316 311 316
336 336 339 346 351 352 352 353 353 354 357 359 360 359 361 362 363 362 361 359 358 356 355 353 349 348 344 343 339 333 327 320 323 329 331 328 322 321 320 318 312 310 313
334 337 338 351 351 356 355 356 357 357 358 360 359 361 363 363 363 361 360 358 357 354 350 349 346 344 343 340 334 331 320 323 330 332 328 323 322 321 318 314 306 309 310
333 336 337 344 357 359 360 359 361 362 362 363 365 365 365 361 363 363 355 355 353 351 348 346 343 342 338 336 332 322 322 327 328 328 323 322 320 318 310 305 307 307 307
340 340 344 356 359 360 361 362 364 364 365 366 366 362 356 352 344 344 351 349 349 350 344 340 338 335 334 326 328 321 324 325 325 324 321 320 318 307 305 307 308 308 309
352 352 353 356 359 360 361 363 362 364 365 362 350 347 343 344 353 344 343 344 347 342 339 338 337 337 334 330 327 324 326 326 325 320 319 314 308 308 308 309 310 311 308
353 355 359 362 363 364 363 363 362 360 359 351 350 352 351 349 349 350 348 345 342 340 337 337 338 336 333 331 330 326 327 325 322 318 310 310 309 308 308 309 310 310 304
360 362 362 361 361 359 359 357 355 354 353 354 353 348 345 346 350 348 346 345 343 341 339 338 338 334 334 334 331 325 323 320 318 312 311 310 309 309 308 308 309 308 304
357 356 355 355 355 354 353 352 350 348 343 345 347 343 339 340 344 346 344 344 342 340 339 337 336 334 334 332 328 324 322 319 313 309 311 310 309 308 308 308 308 307 306
353 352 352 352 351 347 347 346 347 348 340 336 338 341 336 339 342 345 344 341 340 338 339 337 336 334 333 331 327 324 322 316 309 311 310 310 309 308 307 307 308 307 306

GFSMW_850_thetae_174.txt.gz
Theta_e
351 349 349 348 348 349 350 349 348 348 349 344 336 334 336 339 339 343 348 348 349 347 345 344 347 348 349 349 350 349 342 348 338 333 333 334 337 338 333 337 335 336 334
352 351 349 348 347 348 349 348 347 349 349 349 348 345 336 333 333 336 348 349 349 349 349 350 345 342 347 351 350 349 340 348 340 335 335 335 335 335 334 334 335 334 331
350 351 350 350 348 348 348 348 349 351 350 350 350 350 349 344 339 340 348 349 349 351 351 350 350 347 343 348 350 349 348 349 342 337 336 339 339 336 333 334 333 331 328
347 349 350 350 350 350 349 351 351 351 352 351 349 348 344 341 336 343 345 347 348 350 353 351 349 347 341 339 346 347 345 346 344 336 336 338 336 336 334 332 329 325 321
346 347 348 349 350 350 351 351 351 351 351 351 349 346 345 341 338 342 347 351 352 351 352 350 350 350 349 347 344 344 344 346 346 336 337 336 337 337 332 330 324 319 320
346 346 347 348 348 349 349 349 350 350 350 349 345 343 341 338 337 341 347 350 351 351 351 348 351 351 351 350 343 346 349 347 345 335 337 339 339 333 332 329 326 323 320
345 345 346 347 348 349 349 349 349 349 349 348 345 340 337 337 336 336 339 346 348 349 348 350 352 351 351 351 349 348 347 348 343 335 337 340 339 330 329 328 326 324 321
343 344 344 344 346 348 348 348 348 348 347 346 345 342 338 335 334 336 338 340 343 345 349 354 353 352 353 353 352 349 347 345 339 337 340 341 340 333 330 329 325 327 324
341 342 342 343 343 345 346 345 345 345 344 342 344 343 338 335 332 333 335 339 346 350 350 351 353 354 354 354 354 348 345 343 341 336 339 342 340 335 330 327 327 327 327
341 341 341 342 342 341 342 343 343 342 341 341 342 341 338 334 332 332 333 334 338 343 352 355 355 354 352 354 353 347 345 343 341 339 341 342 337 334 329 326 328 328 327
342 341 341 341 341 341 342 342 343 342 342 341 338 340 340 339 337 333 331 333 335 338 343 349 356 356 355 354 349 346 342 343 342 342 343 342 334 330 330 328 329 328 323
343 342 342 341 341 341 342 342 342 342 342 342 341 337 339 340 341 341 339 337 336 339 342 345 346 348 351 349 348 347 346 344 341 343 342 337 332 332 330 329 330 324 322
343 342 342 341 341 341 341 342 343 342 343 343 343 343 340 340 341 344 347 347 347 347 347 349 352 353 354 350 349 347 345 344 342 343 339 336 332 333 330 331 327 323 317
343 343 343 342 343 342 342 342 342 343 343 343 344 343 342 342 343 344 346 348 350 353 352 353 354 358 353 352 350 348 345 343 344 343 335 333 333 330 331 328 324 320 319
342 343 343 344 344 344 344 344 344 344 345 343 344 344 344 344 346 348 349 351 355 355 356 358 359 356 354 353 351 348 346 343 343 336 332 334 331 331 330 325 322 321 319
342 340 339 340 341 342 342 340 343 345 347 347 346 345 346 347 347 349 352 356 358 358 360 360 358 357 357 356 353 346 344 343 342 335 334 332 330 329 325 323 322 320 307
337 340 340 340 341 340 341 341 340 343 346 347 349 348 347 348 349 351 355 358 360 360 359 357 357 357 357 354 349 345 344 343 339 334 333 327 329 327 324 323 319 308 305
337 336 338 342 341 340 341 341 343 346 348 347 349 349 349 350 352 355 358 361 360 360 358 357 357 356 353 351 347 344 342 339 334 328 325 330 328 324 321 318 308 306 307
337 338 340 336 337 340 343 345 346 347 349 350 347 348 349 351 354 357 360 358 357 358 358 356 356 354 352 347 345 340 337 334 325 325 329 327 323 322 317 307 307 307 305
335 335 335 337 341 344 347 345 348 348 350 354 352 350 351 354 358 359 357 356 359 358 357 358 355 352 346 346 342 336 333 325 322 327 326 324 322 316 308 307 307 307 305
332 333 334 335 340 344 343 347 350 351 351 354 358 359 361 362 361 359 357 359 359 357 357 351 350 346 347 343 339 335 328 322 325 325 324 320 312 309 308 307 308 307 304
334 335 336 338 344 347 352 354 355 356 355 358 362 363 362 361 360 361 362 358 356 348 344 349 346 345 343 340 337 334 328 323 325 324 320 311 310 309 308 308 308 307 304
336 339 340 346 354 357 357 356 359 358 359 360 361 362 362 363 361 359 356 344 343 341 343 345 344 342 340 337 336 332 329 327 324 320 311 310 310 309 308 308 307 306 304
348 349 348 357 360 360 359 357 359 360 359 361 362 361 362 360 354 349 345 341 340 344 346 344 341 338 336 336 334 331 328 323 319 312 311 310 309 308 308 307 306 306 305
356 358 359 360 361 362 361 360 361 360 362 360 361 357 347 339 336 339 343 344 345 345 343 341 338 336 336 335 332 328 323 321 318 312 311 310 309 308 307 306 305 303 304
359 359 359 360 362 362 361 361 358 354 356 350 344 339 338 341 337 340 341 345 343 342 341 340 339 336 335 333 330 325 323 322 315 312 311 310 308 306 306 305 303 302 303